Theta_e
333 334 334 333 334 335 336 336 336 336 336 335 336 336 334 334 334 333 333 332 332 332 332 334 334 332 332 332 331 331 331 331 331 331 331 331 331 331 332 332 332 331 331 331 331 331 330 327 325 325 326 327 328 329 329 327 326 325 326 325 325 324 323 320 318 319 319 316 314 313 312 312 309 309 310 311 317 322 325 326 325 325 326 326 327
335 334 334 333 333 334 335 336 336 337 336 335 335 334 333 333 333 334 334 334 334 334 333 334 334 333 333 333 333 333 333 333 333 332 332 331 332 332 332 332 332 330 329 330 331 331 330 328 326 325 326 327 328 329 329 329 328 326 326 325 325 324 324 321 320 322 321 318 315 313 312 311 310 308 309 310 315 321 324 325 325 325 326 326 327
333 334 334 333 333 333 334 334 335 336 335 334 334 333 333 333 333 334 333 334 334 334 333 333 334 334 334 334 334 334 334 334 334 333 333 333 333 333 333 334 334 333 332 331 330 329 328 326 323 325 328 327 328 329 329 329 329 328 327 326 325 324 325 322 320 322 322 320 316 313 312 311 310 308 308 310 314 319 323 324 324 325 325 326 326
334 334 334 334 334 333 333 334 334 335 335 334 334 334 333 333 334 333 333 333 332 333 333 333 333 334 334 334 334 334 334 335 335 334 334 334 333 333 333 334 334 335 335 334 332 329 327 325 322 324 328 327 327 329 330 330 329 329 329 328 326 325 325 323 320 320 321 321 318 314 313 312 310 308 308 309 311 317 322 324 324 324 325 325 326
334 334 333 334 334 333 333 334 334 334 334 334 334 333 333 333 333 333 333 332 332 332 332 332 332 333 333 333 333 334 334 334 335 335 334 334 333 333 333 333 334 335 335 334 333 332 330 328 325 323 324 324 327 330 331 330 330 330 329 329 328 326 325 323 321 319 320 321 318 315 315 314 311 309 307 308 310 313 320 323 323 323 324 325 325
333 332 331 332 333 333 334 335 334 334 333 332 333 332 332 334 334 333 333 332 332 332 332 332 332 332 332 333 333 333 333 334 334 334 334 334 334 334 333 333 334 334 334 334 333 333 332 331 329 326 324 323 325 328 331 331 330 330 330 330 329 328 326 324 323 320 319 319 318 315 315 316 313 310 308 308 309 311 317 322 322 323 324 325 325
333 333 332 333 334 334 335 335 334 333 332 332 333 333 334 334 335 334 333 332 332 332 332 333 332 332 332 331 332 332 332 332 333 333 333 333 333 333 334 334 334 334 334 334 333 333 332 331 331 330 328 325 323 325 329 331 331 331 330 331 330 330 328 327 325 322 320 318 317 316 315 318 317 312 309 308 309 310 314 320 321 322 323 324 324
334 335 335 335 335 335 336 336 334 333 333 333 333 334 335 335 335 335 334 332 331 331 332 332 332 332 331 331 330 331 331 331 330 331 332 332 332 332 333 333 333 333 333 333 333 333 333 332 331 331 330 329 326 326 330 331 331 331 331 331 331 331 330 329 327 324 321 318 318 317 314 319 318 313 311 309 309 310 312 319 321 322 323 323 324
335 335 336 336 336 336 335 335 334 334 334 334 334 335 335 335 335 334 333 332 331 331 331 331 332 331 331 331 330 330 330 330 330 330 331 331 331 332 332 332 332 332 333 333 333 333 333 333 331 331 331 331 329 328 330 331 331 332 332 331 331 331 331 330 328 326 322 318 317 317 315 319 319 313 313 310 310 312 311 317 322 321 322 323 323
335 335 335 336 337 336 335 335 334 334 334 335 335 336 335 334 333 333 332 332 332 332 332 332 332 331 331 331 331 330 330 330 331 331 331 331 331 332 331 331 331 331 332 332 333 333 333 333 332 331 332 332 331 329 330 331 332 332 331 331 331 331 331 330 329 327 324 318 316 317 316 319 318 314 315 313 311 312 311 315 320 321 321 322 323
334 335 334 335 337 336 335 335 334 334 335 335 335 334 334 333 333 333 333 332 333 333 333 332 332 332 331 331 331 330 330 330 332 332 332 331 331 331 331 331 331 330 331 331 331 332 332 332 332 332 332 332 332 331 331 331 331 331 331 331 330 331 331 331 330 328 326 320 316 318 318 318 318 316 316 317 314 311 310 312 317 321 321 321 323
334 335 335 336 336 335 335 334 334 334 334 335 334 332 333 333 333 333 333 333 333 334 334 333 332 332 331 331 331 330 330 331 332 332 332 331 330 330 330 330 330 330 330 329 330 330 331 332 332 332 332 331 331 331 331 332 331 330 330 331 330 330 331 331 330 328 327 324 317 318 320 318 319 318 316 318 317 312 311 311 313 319 322 321 322
336 336 336 336 335 335 334 334 334 334 334 334 332 332 333 333 333 333 333 332 333 334 334 333 332 332 331 330 330 330 330 331 333 333 331 330 330 330 330 330 330 330 330 329 329 329 330 330 331 331 331 331 331 331 331 331 331 330 330 331 331 331 331 331 331 329 328 327 320 316 319 320 320 320 318 318 319 315 312 311 312 317 321 321 322
336 336 336 336 335 335 335 334 333 332 332 331 329 330 331 331 331 330 331 331 332 333 333 333 332 332 331 330 329 329 330 333 333 332 330 330 330 330 330 331 331 331 331 330 330 330 330 330 330 330 330 331 331 331 331 331 331 331 331 331 331 331 331 331 331 330 329 328 325 318 317 320 320 321 320 319 319 318 315 313 312 315 320 321 321
335 335 335 335 335 335 335 334 332 330 329 328 327 328 329 330 330 329 329 329 331 332 332 333 333 332 331 331 330 329 330 333 331 330 330 331 330 330 331 331 331 331 331 331 331 331 330 330 330 330 330 330 330 330 330 331 331 331 331 331 331 331 330 330 330 330 329 328 327 322 318 319 320 321 322 320 319 319 317 315 312 314 319 321 321
334 334 335 335 335 335 334 333 331 330 328 326 325 326 327 328 329 328 328 327 327 329 330 332 333 332 331 331 331 331 331 331 329 328 330 330 330 330 331 331 331 332 332 332 331 330 330 330 330 329 329 329 329 329 328 329 330 330 331 331 331 331 331 331 330 330 330 329 328 325 321 320 320 321 322 322 320 319 318 316 313 316 320 321 321
333 333 333 332 333 333 333 332 331 329 326 323 323 324 325 326 326 326 326 325 324 325 327 330 332 332 331 331 330 331 331 330 329 328 328 328 329 330 330 331 332 332 332 332 331 331 330 330 330 330 330 329 329 328 328 328 329 330 331 331 331 331 331 331 330 329 329 329 329 327 325 321 319 320 321 322 321 320 319 317 315 319 322 321 321
331 331 330 330 330 330 330 329 327 325 322 320 319 320 321 322 323 322 322 322 322 323 324 326 328 330 331 330 329 329 328 328 329 328 327 327 327 328 329 330 331 331 331 331 331 331 331 331 330 330 330 330 330 329 329 329 329 329 330 331 331 331 331 331 331 330 329 329 330 329 327 323 319 318 320 322 322 320 320 319 317 319 322 321 321
329 328 327 326 325 324 324 323 321 320 320 318 317 318 318 319 319 318 317 317 318 318 319 320 323 325 327 328 328 328 327 327 326 326 326 325 324 326 327 327 329 329 330 331 331 331 331 331 331 331 330 330 330 329 330 329 329 329 329 330 330 330 331 331 331 330 329 329 330 330 329 325 321 318 318 320 322 321 320 320 319 318 320 320 321
326 325 323 322 321 320 319 319 318 319 319 318 317 316 316 316 315 315 315 315 316 316 317 317 318 320 320 322 323 324 325 325 324 323 323 323 323 324 324 324 324 326 328 329 330 330 330 331 331 331 330 329 329 329 329 329 329 329 329 329 329 330 330 331 331 330 330 329 329 330 330 327 323 321 320 320 320 321 320 320 320 319 319 319 320
323 321 320 319 319 319 319 318 318 317 316 316 315 314 314 313 313 313 313 314 314 314 314 315 316 316 316 316 317 318 319 320 319 319 320 321 322 322 322 320 318 319 322 325 328 330 330 330 330 330 329 329 329 330 330 330 330 330 330 329 329 329 330 330 330 330 330 330 330 330 330 328 325 323 324 323 321 321 320 320 320 320 321 319 320
320 319 319 319 319 318 317 317 315 315 314 314 313 313 313 312 312 313 312 312 312 312 313 313 314 314 314 314 314 315 315 316 316 317 318 319 319 319 319 319 318 316 315 317 321 325 327 328 329 328 328 329 329 330 331 331 330 330 331 331 329 328 329 330 330 330 330 330 330 330 329 328 326 324 325 327 325 322 321 320 320 321 323 321 320
319 319 318 318 316 315 314 314 313 313 313 312 312 312 312 311 311 311 310 310 311 311 311 312 312 312 312 312 313 314 315 315 315 316 317 317 317 316 316 316 316 316 314 314 315 318 320 322 326 326 326 328 328 329 330 331 330 330 330 331 330 329 329 329 330 330 330 330 330 330 328 327 326 324 325 327 327 325 322 320 321 323 324 324 322
318 317 316 314 314 313 313 313 312 312 312 311 311 311 310 310 310 309 309 310 310 310 310 310 310 310 311 311 313 314 314 314 314 314 314 315 315 315 315 315 315 315 314 314 314 315 317 318 321 323 324 325 326 326 328 329 329 329 330 331 331 330 329 328 328 329 330 330 330 330 329 327 326 325 325 327 327 327 325 322 321 323 324 324 324
316 315 314 313 312 312 312 312 311 311 310 310 310 309 309 309 308 308 308 308 309 309 310 310 310 310 311 312 313 314 314 314 313 313 312 313 314 314 314 314 314 314 313 312 312 312 315 316 317 319 321 322 322 324 326 327 327 327 328 329 330 330 329 328 328 327 328 329 329 330 329 328 328 326 325 326 327 327 327 324 322 322 324 324 324
314 313 312 312 311 311 311 310 310 309 309 308 308 307 306 306 305 305 305 306 308 309 309 310 311 310 311 312 313 313 313 313 312 311 310 311 312 312 312 312 311 310 308 307 307 308 309 311 313 314 316 318 319 321 324 326 326 326 326 327 328 330 330 329 328 327 327 328 328 329 329 329 329 327 324 325 327 327 327 327 324 322 323 324 324
312 311 311 311 310 310 309 309 308 307 307 306 305 304 303 303 303 303 303 305 307 308 309 310 311 310 310 310 311 311 311 311 310 309 308 309 310 310 309 308 307 306 306 305 305 305 306 306 307 308 310 312 314 316 318 320 321 322 323 325 326 328 330 329 328 328 327 327 327 328 329 329 329 328 325 323 324 325 327 328 325 322 322 323 324
311 310 310 309 309 308 308 307 306 305 304 303 302 302 301 302 302 303 304 305 306 307 308 309 309 309 309 308 308 308 308 307 306 306 305 305 306 306 306 305 305 306 305 305 304 303 304 303 304 304 305 307 308 309 311 312 313 314 316 320 322 325 328 329 329 328 327 327 327 327 328 329 329 329 327 324 323 322 324 327 327 323 321 322 323
310 309 308 308 308 307 306 305 303 302 301 301 301 301 301 301 302 304 306 308 307 308 308 307 306 307 307 305 303 302 302 302 302 303 302 302 303 303 303 303 303 304 305 304 303 302 302 302 303 303 303 303 304 305 306 308 309 310 312 314 317 320 324 327 328 328 327 327 328 327 327 327 328 330 329 328 326 323 322 325 328 325 322 321 322
308 308 307 307 306 305 303 302 301 300 300 301 301 301 302 302 304 306 307 308 307 307 307 306 304 304 303 302 300 300 300 300 301 301 302 302 302 302 302 302 302 302 303 303 303 302 303 303 302 303 303 302 303 303 304 305 306 308 310 311 313 316 320 323 325 326 326 327 327 327 327 327 327 329 330 329 327 324 322 322 325 326 323 321 321
307 307 306 305 304 302 301 301 300 300 299 300 301 302 302 303 305 306 307 307 306 305 304 303 302 301 300 300 300 300 301 301 301 302 302 302 302 302 302 303 302 301 301 302 302 303 303 303 303 303 304 303 303 303 304 304 305 307 309 310 312 314 317 320 323 324 324 325 326 326 327 327 327 327 328 329 329 327 323 321 322 325 324 323 321
306 306 304 303 302 301 300 299 299 299 299 300 301 303 303 304 305 305 305 304 302 301 301 300 299 300 299 300 300 300 301 301 301 302 302 302 302 302 302 303 302 300 300 301 301 302 302 302 303 304 304 304 304 304 304 304 304 305 307 309 311 313 314 317 320 323 324 324 326 327 326 327 327 327 326 326 328 329 328 324 320 321 324 324 322
305 304 303 301 300 300 299 299 298 298 298 299 302 303 303 303 303 303 302 300 299 299 299 299 299 299 299 300 300 300 300 300 301 301 301 301 302 302 302 303 302 300 299 300 300 300 301 301 301 302 303 303 304 305 305 305 305 305 305 306 308 311 313 316 318 320 322 322 323 325 326 326 326 327 326 325 326 328 330 328 323 320 321 324 323
303 302 301 300 299 299 298 298 298 297 298 299 301 302 302 302 302 301 299 298 298 298 298 299 299 299 299 300 300 300 300 300 301 301 301 301 301 302 302 302 300 299 299 299 300 300 300 301 300 301 301 301 303 304 304 305 306 306 306 305 306 307 311 315 317 318 319 320 321 322 324 325 325 326 327 327 327 327 328 329 327 322 320 321 323
301 300 299 299 298 298 297 297 297 297 298 299 300 300 300 301 301 300 299 298 298 298 299 299 299 299 299 300 300 300 301 301 301 301 301 301 301 302 302 301 299 298 299 299 300 300 300 300 300 301 301 300 301 303 303 303 304 304 306 307 306 306 307 310 314 317 318 319 321 323 323 324 324 325 326 326 327 327 327 328 328 327 324 321 322
299 299 298 298 297 297 297 297 296 297 298 300 301 300 300 299 299 298 298 298 298 298 298 299 299 299 300 300 300 300 301 301 301 301 301 301 301 301 300 299 298 298 299 299 300 300 301 301 301 301 300 300 300 301 301 302 303 303 305 306 307 307 306 307 309 313 316 318 320 321 323 324 324 324 325 325 326 327 327 328 328 328 328 324 321
298 298 298 297 297 297 296 296 296 297 299 301 301 300 299 298 298 298 298 298 298 298 298 299 299 300 300 300 300 300 300 300 301 301 301 301 301 301 300 299 298 298 299 299 299 300 300 301 301 300 300 300 300 300 300 301 301 302 303 304 306 306 307 306 306 308 312 316 319 320 322 324 324 324 325 326 326 327 327 328 328 328 329 328 324
297 297 297 296 296 296 296 296 296 296 299 301 301 300 299 298 298 298 297 297 297 298 298 299 299 300 299 299 299 299 299 299 300 300 300 300 300 300 299 299 299 299 299 299 300 300 300 300 300 300 300 300 300 300 300 300 300 301 302 303 304 306 306 307 307 306 307 311 316 320 321 322 323 324 325 325 326 327 327 327 328 327 328 329 327
296 296 296 296 296 296 296 296 296 297 299 300 300 300 299 298 297 297 297 297 297 298 298 299 299 299 299 299 299 298 299 299 299 299 300 300 300 299 299 298 299 299 299 299 299 299 299 299 299 299 299 299 299 299 300 300 300 300 301 301 303 305 305 306 306 307 306 307 311 316 319 320 322 324 325 325 326 326 327 327 328 328 327 328 329
296 296 296 296 296 296 296 296 296 297 299 300 300 300 299 298 297 297 297 297 297 297 298 299 300 299 299 299 298 298 298 299 299 299 299 299 299 299 298 299 299 299 299 299 299 299 299 298 298 298 298 298 298 298 298 299 299 300 300 300 301 302 304 305 306 306 307 306 307 310 314 318 321 323 325 326 327 327 326 327 328 328 327 327 328
296 296 295 295 296 296 296 296 297 298 299 300 300 300 299 298 297 297 297 297 297 297 298 299 299 299 299 299 298 298 298 298 299 299 299 299 298 298 298 299 299 299 299 299 299 299 298 298 298 298 298 298 298 298 298 298 298 299 299 300 300 301 302 303 305 306 306 306 307 307 310 316 320 322 324 326 327 327 326 327 327 327 327 327 328
295 295 295 295 295 295 296 296 297 298 299 300 299 299 299 298 298 298 298 298 298 298 297 298 299 299 299 299 299 298 298 298 298 298 298 298 298 298 298 298 299 299 299 298 298 298 298 298 298 298 298 298 298 298 297 297 298 298 299 299 300 301 302 302 304 305 305 305 306 306 308 313 318 321 323 324 325 326 326 326 327 327 327 328 328
295 295 295 295 295 295 296 296 297 298 299 300 300 299 300 300 299 300 300 299 299 298 297 298 299 299 299 299 299 299 298 298 298 298 298 298 298 298 298 298 298 299 298 298 298 298 298 298 298 298 298 298 298 298 297 297 297 298 299 300 300 300 302 302 303 305 305 305 305 305 307 311 315 318 322 323 323 325 326 326 326 326 327 327 328
295 295 295 295 295 295 295 296 297 298 299 300 300 301 301 301 301 301 300 299 299 298 297 297 298 299 299 299 299 298 298 298 298 298 298 298 298 298 298 298 299 299 298 298 298 298 298 298 298 298 298 298 298 298 298 297 297 298 298 299 300 300 301 302 302 304 305 305 304 305 307 308 311 315 320 322 322 324 325 326 326 326 326 326 327
295 295 295 295 295 295 295 296 297 298 299 300 301 301 301 302 302 302 301 299 297 297 297 297 297 298 299 299 298 298 298 298 298 298 297 298 298 298 298 298 299 299 299 298 297 297 298 298 298 298 298 298 298 298 298 297 297 297 298 299 300 301 301 302 302 303 304 304 305 305 306 308 310 314 319 322 323 324 325 326 326 326 326 326 326
295 294 295 295 295 295 295 296 297 298 299 300 301 301 301 301 301 302 301 299 297 297 297 296 297 297 297 298 297 297 297 297 297 297 297 297 297 297 298 298 298 299 299 298 297 297 297 297 298 298 298 298 298 298 298 297 296 297 298 299 300 300 300 301 302 303 304 304 305 306 307 309 310 313 318 321 322 323 325 326 326 326 326 326 326
295 295 295 295 295 295 295 296 297 298 300 301 301 301 301 301 301 301 301 299 298 298 297 296 296 296 296 297 297 296 297 296 296 297 297 297 297 297 297 298 298 298 298 298 297 297 297 297 297 298 298 298 298 298 297 297 297 298 299 299 299 299 300 301 302 303 304 305 306 307 308 311 312 314 318 321 321 322 324 326 326 325 325 326 326
295 295 294 295 295 295 295 296 296 297 299 300 301 301 301 301 299 299 299 299 299 299 298 296 296 296 296 296 296 296 296 296 296 296 296 296 297 297 297 297 298 298 298 297 297 297 297 297 297 298 298 298 298 298 297 297 297 298 299 300 300 299 299 300 300 301 304 306 307 307 308 311 314 315 318 320 321 322 324 325 326 325 325 325 325
295 295 295 294 295 295 295 295 295 296 297 298 298 299 299 299 298 297 297 298 298 298 297 296 295 295 295 295 296 296 296 296 296 296 296 296 296 297 297 297 297 297 297 297 297 297 297 297 297 298 297 298 298 297 297 298 298 299 299 299 299 298 298 299 298 299 303 307 307 307 309 312 314 317 319 320 321 322 323 324 325 325 325 325 325
295 294 294 294 294 294 294 295 295 295 295 296 296 296 297 297 296 296 296 296 297 297 297 295 295 295 295 295 295 295 295 296 296 296 296 296 296 296 296 296 297 297 297 297 297 296 297 297 297 297 297 297 298 298 297 298 299 299 299 298 297 297 298 298 297 298 302 307 306 307 311 315 316 318 319 320 321 322 323 323 324 324 324 324 324
294 294 294 294 294 294 294 294 294 295 295 295 295 295 295 295 295 295 296 295 295 295 295 295 294 294 294 294 295 295 295 295 295 295 295 295 295 296 296 295 296 297 296 296 296 296 296 297 297 297 297 297 297 298 297 298 298 299 299 298 297 297 297 297 297 297 300 304 306 309 313 316 318 319 320 321 321 321 321 323 324 324 324 324 323
Wind_Speed
4 3 2 3 5 5 4 5 6 7 7 9 9 9 10 11 10 11 11 10 10 9 9 10 9 9 11 13 16 16 15 16 16 16 17 18 19 20 22 23 23 23 23 22 21 21 20 20 19 19 19 19 17 17 16 15 15 15 15 16 16 14 11 9 9 9 8 7 6 6 7 8 9 10 10 10 10 11 12 11 10 9 8 8 7
4 4 4 5 6 6 6 6 7 7 7 8 8 8 8 9 9 10 10 10 10 10 10 12 12 12 12 12 14 14 14 16 16 16 17 19 21 22 23 24 24 24 24 23 22 22 22 21 21 20 20 21 20 18 17 15 15 15 15 15 16 16 13 11 10 9 9 8 7 7 7 8 9 10 11 12 12 12 13 12 11 10 9 9 9
2 2 3 4 5 5 5 6 6 6 6 7 7 8 7 7 8 8 9 10 10 10 11 13 15 15 15 14 14 14 14 14 15 14 16 19 21 22 24 25 24 23 22 22 22 23 23 22 23 21 20 22 22 20 19 17 15 15 15 14 15 16 14 11 10 10 10 9 8 8 8 9 10 11 12 13 14 13 14 14 12 12 11 10 10
1 2 2 2 2 3 4 3 3 4 6 6 7 8 7 7 8 8 9 10 10 10 11 12 14 15 15 16 16 16 15 15 14 14 15 17 18 21 22 24 24 23 22 22 22 22 23 24 24 23 20 21 23 22 20 19 17 16 15 15 15 16 15 11 10 11 11 10 9 9 9 9 11 12 12 14 15 14 15 15 14 13 12 12 11
2 2 2 1 2 3 2 2 3 3 4 5 6 7 7 7 7 8 8 9 9 9 10 11 11 12 13 14 15 16 16 17 16 17 17 16 17 19 21 23 23 23 24 24 23 22 23 24 24 23 23 22 23 22 20 19 18 17 16 17 16 15 14 12 11 11 11 11 10 10 9 10 11 13 13 14 16 16 16 16 15 15 13 13 13
1 2 2 2 2 2 2 1 2 3 4 5 5 6 6 7 7 8 8 9 10 10 11 11 11 12 12 12 13 14 15 16 17 18 19 19 19 21 22 23 24 25 25 25 23 22 22 21 20 21 23 24 23 22 21 19 19 18 17 18 18 16 15 14 13 12 12 11 11 11 10 10 11 12 14 14 16 17 18 16 16 16 15 15 14
1 0 1 2 2 1 1 2 1 3 5 5 5 6 6 6 7 8 9 10 11 11 12 12 13 13 13 13 13 13 14 15 15 16 18 19 21 22 24 25 26 27 27 26 24 23 21 20 18 18 21 23 23 23 22 21 19 18 17 18 18 18 17 16 15 13 12 12 12 11 11 11 11 12 14 15 16 17 18 16 15 17 16 17 16
2 1 1 2 2 1 2 2 1 3 4 5 6 6 6 6 8 9 11 12 12 12 12 13 14 14 14 14 14 14 15 15 15 14 15 17 18 19 20 22 23 24 24 25 25 23 22 21 20 18 18 20 21 21 22 22 20 18 17 17 17 18 19 19 18 15 13 13 13 12 12 12 12 13 14 16 17 17 19 18 16 17 17 17 16
2 2 2 2 3 3 2 1 3 4 4 5 5 5 5 7 8 10 12 13 13 13 12 12 13 13 14 14 15 15 14 14 13 13 13 14 15 16 16 17 18 19 20 21 23 23 23 22 21 19 18 19 20 20 21 22 20 18 17 17 17 19 20 21 20 17 13 14 14 13 13 13 13 14 14 16 17 16 19 20 17 18 18 18 18
3 2 2 2 3 3 2 2 4 4 4 4 4 5 6 8 10 11 11 13 13 12 12 12 13 13 13 13 13 13 13 12 11 10 11 11 11 13 14 14 15 16 17 18 20 21 21 21 20 19 19 19 20 20 21 22 21 19 17 18 18 19 20 21 21 19 15 14 15 14 14 14 13 14 14 16 17 16 19 21 19 18 18 18 18
3 3 2 2 3 3 2 3 4 4 3 3 4 5 7 8 10 10 10 10 10 10 11 12 13 13 13 12 12 13 12 10 8 8 8 10 12 13 14 14 15 16 17 17 17 19 20 20 19 19 20 20 21 21 22 23 22 20 18 19 19 19 19 20 22 21 16 14 15 15 15 15 14 15 15 15 16 16 18 21 21 19 18 18 18
4 4 3 3 4 4 3 3 4 4 4 4 5 6 7 9 9 9 9 8 8 8 10 12 13 12 12 12 11 12 10 7 7 7 8 13 15 14 13 13 14 15 15 15 16 18 19 20 20 20 20 20 21 20 21 23 23 22 20 20 20 19 20 20 21 22 19 16 15 16 16 16 15 15 16 16 16 17 17 20 22 20 18 19 19
6 6 6 6 5 6 6 5 6 5 5 5 5 5 7 9 9 9 9 8 7 7 10 12 13 14 13 11 10 9 8 6 5 6 11 14 12 11 13 13 14 14 15 15 15 17 17 18 18 19 20 20 20 20 20 22 24 24 23 22 21 19 20 21 20 20 20 18 15 16 17 17 16 16 16 17 16 17 18 19 22 22 20 19 19
8 8 7 7 7 8 8 8 7 6 6 6 6 7 8 10 11 9 8 7 7 7 9 11 13 15 16 16 13 10 8 5 3 9 14 12 10 12 13 12 14 15 15 16 15 16 16 16 16 17 18 20 21 20 20 22 23 24 24 23 22 21 21 21 21 20 19 20 17 16 18 18 17 17 17 17 17 18 19 19 21 23 21 19 20
8 8 8 9 9 9 10 9 9 8 8 8 9 9 10 11 11 10 9 7 5 5 7 10 12 15 15 16 16 14 11 8 10 13 11 10 12 14 12 11 14 15 17 17 16 17 17 17 17 17 18 19 20 20 21 22 22 23 24 24 23 23 22 22 22 20 19 20 20 17 17 19 19 18 18 18 19 19 19 19 21 22 21 20 22
9 9 10 11 11 11 11 11 10 10 10 11 11 11 11 12 11 10 11 10 7 5 6 8 10 13 14 15 15 14 15 18 22 16 9 11 13 12 12 12 13 15 17 17 18 19 19 19 19 18 18 19 19 20 20 21 21 21 22 24 24 23 23 23 22 21 19 21 21 19 18 20 21 20 19 20 20 20 20 20 21 22 21 22 22
12 13 13 13 13 13 13 13 12 12 12 12 11 11 12 12 11 10 11 12 11 9 8 6 6 8 10 12 11 12 15 20 24 18 13 15 13 12 13 11 10 13 15 16 18 19 19 20 20 20 20 19 19 20 20 20 20 21 22 24 25 24 24 24 23 21 21 21 22 22 20 21 23 22 21 21 21 21 21 21 22 22 22 22 22
14 15 14 13 13 13 13 13 13 12 10 9 8 8 9 9 10 11 11 12 13 13 12 9 7 6 4 5 5 8 14 16 17 19 20 18 14 14 13 10 9 11 12 14 16 18 19 21 20 21 21 21 21 21 21 20 20 21 23 23 24 24 24 25 24 22 22 22 23 24 23 22 23 23 23 23 22 22 22 22 22 23 23 22 22
13 13 12 11 11 11 10 9 9 8 7 7 7 7 8 8 9 11 12 12 14 15 15 14 11 10 8 7 6 6 9 10 13 17 21 21 20 18 16 14 12 11 12 12 13 15 16 18 19 20 22 22 21 22 22 21 20 20 22 23 22 22 24 25 25 23 22 22 23 24 23 21 22 23 23 23 24 24 23 23 23 23 23 23 23
11 9 8 7 7 7 6 5 5 6 5 6 7 6 7 8 8 10 11 12 13 14 15 15 15 13 13 12 12 11 10 8 10 13 16 21 26 25 23 21 17 14 13 11 11 13 14 15 17 19 21 23 23 23 23 23 22 21 20 21 22 22 23 25 26 25 25 23 23 24 24 22 22 24 23 23 24 25 24 24 24 24 24 24 23
8 6 4 2 2 2 3 3 4 4 4 4 5 5 6 7 8 9 10 10 11 12 13 13 13 14 15 14 12 12 10 9 11 11 12 16 21 24 26 27 25 21 18 15 14 13 14 15 16 18 21 24 25 25 25 24 23 22 21 20 20 22 23 24 26 27 27 26 24 24 25 24 24 25 26 25 25 25 25 25 25 24 24 24 24
4 3 3 1 1 1 1 1 0 1 2 4 4 5 7 7 8 10 10 9 9 10 11 11 11 12 12 12 12 12 11 12 14 14 14 14 17 21 23 26 27 27 24 22 20 17 16 15 15 19 21 22 24 25 26 25 23 22 22 20 19 21 23 24 25 27 28 28 27 26 26 26 25 26 28 28 27 26 26 26 26 24 23 24 24
1 3 3 2 2 2 2 2 2 2 3 4 4 6 7 8 9 9 9 9 9 9 9 10 10 10 10 10 11 12 13 15 17 16 16 17 19 22 24 25 26 27 26 24 21 19 18 15 13 17 19 20 23 24 24 25 24 23 24 22 21 20 21 24 25 26 28 30 30 29 28 27 26 27 30 31 30 28 27 27 27 26 25 25 24
1 4 5 4 4 4 3 3 2 3 4 4 5 6 7 8 8 8 8 7 8 9 10 11 12 12 13 13 13 13 13 13 14 14 14 15 17 20 23 24 24 25 25 23 21 19 17 15 14 15 16 18 21 21 19 18 20 22 24 25 24 21 20 22 24 25 27 30 31 30 31 28 25 27 31 33 33 32 29 28 29 29 28 27 26
4 6 7 5 4 4 3 3 3 3 4 4 5 6 7 8 8 8 7 7 8 9 11 14 15 15 15 14 12 11 10 11 12 13 13 13 14 18 21 21 23 26 26 25 24 22 19 16 15 16 16 16 19 20 17 15 16 17 19 23 25 24 21 20 22 25 26 29 31 31 31 31 28 28 30 33 35 35 33 31 30 31 31 29 29
7 8 7 5 4 3 3 3 3 3 3 4 5 5 7 8 9 9 8 7 8 10 11 13 14 14 13 11 9 8 8 9 12 14 13 13 15 18 22 23 25 26 27 26 25 25 23 20 19 19 18 17 18 20 20 19 19 18 17 20 22 24 25 21 19 23 26 28 31 32 33 33 33 32 31 33 34 35 36 35 34 34 34 32 31
9 8 6 5 4 3 2 2 3 3 3 4 5 6 7 8 9 9 8 9 9 9 10 11 11 11 11 9 8 8 9 11 13 13 12 12 13 16 20 23 25 27 28 28 27 26 26 25 23 21 20 21 21 21 22 23 25 25 23 22 20 22 25 24 20 21 24 28 29 32 34 34 37 37 32 33 35 35 36 38 37 36 35 35 33
8 8 6 5 4 3 2 2 2 3 4 5 5 6 7 8 9 10 11 12 12 11 10 9 9 9 10 10 10 10 11 12 12 11 11 11 11 12 14 17 21 26 28 30 31 30 28 28 26 23 22 23 24 24 23 23 24 25 25 25 23 22 22 23 23 22 22 25 28 30 33 34 36 38 34 32 36 37 37 39 39 37 36 37 36
9 8 7 5 4 3 2 2 3 3 4 5 5 7 8 9 11 12 13 14 13 12 11 11 10 9 10 13 14 15 15 14 14 14 15 16 14 13 14 15 16 20 23 27 32 33 30 30 30 27 24 24 25 25 24 24 23 22 24 24 24 24 22 22 24 24 23 25 27 29 31 33 35 38 38 37 37 38 39 40 41 39 38 38 38
10 8 7 6 4 3 2 2 3 3 4 5 6 8 9 10 11 12 11 10 9 9 10 11 12 11 12 15 18 19 19 19 19 18 18 19 19 18 18 18 17 16 18 22 28 31 31 31 31 30 28 27 25 25 24 23 22 22 22 23 23 23 23 23 23 25 26 26 26 28 30 33 35 36 39 41 39 39 41 42 42 42 41 41 40
10 8 7 6 4 3 2 3 3 4 5 5 6 8 9 10 10 9 8 7 6 8 10 12 13 13 14 17 19 21 21 21 21 21 21 21 22 22 22 21 19 17 16 19 24 29 30 31 32 31 31 29 27 26 25 22 20 20 21 22 23 23 24 25 25 25 27 26 26 28 29 32 35 35 37 38 38 39 40 41 43 44 43 43 43
10 8 6 5 4 3 2 3 4 4 5 5 6 8 9 9 9 8 7 7 8 10 12 13 15 16 18 20 22 23 23 23 23 23 23 22 22 23 24 24 22 19 18 18 22 28 29 30 32 33 33 32 29 27 26 24 20 19 20 21 22 23 24 25 25 26 28 28 28 29 30 31 33 36 36 36 37 39 40 42 45 45 45 46 46
9 8 6 5 4 3 3 4 4 4 5 6 7 8 10 10 9 8 9 11 12 13 15 16 18 19 21 23 24 24 24 25 25 24 24 24 24 24 25 25 23 21 21 21 23 28 30 31 32 33 34 35 33 30 30 29 25 21 20 20 21 22 22 23 24 24 26 28 28 29 30 30 31 34 36 36 37 38 40 42 45 46 46 47 46
9 7 6 5 4 4 4 4 5 5 6 7 8 9 11 10 10 11 12 14 15 17 18 19 20 21 23 25 26 26 26 26 26 26 26 26 25 25 25 25 24 23 23 24 25 27 30 32 33 33 34 35 35 33 34 34 33 30 26 21 21 22 22 22 23 24 23 23 26 28 29 29 30 31 34 37 38 39 39 41 43 45 47 49 48
9 7 6 5 5 4 4 5 6 7 7 7 8 10 12 11 11 13 14 16 18 19 19 20 21 23 26 28 28 28 28 28 29 29 28 27 26 25 25 24 23 24 24 25 27 28 30 32 33 34 35 36 35 34 35 35 35 34 31 26 23 23 24 23 24 27 26 24 23 25 27 29 30 31 33 35 38 40 41 41 42 44 46 49 51
9 8 7 6 6 5 6 7 8 9 9 8 8 10 13 13 13 15 17 19 20 20 22 23 24 26 29 29 29 28 29 31 31 30 29 27 26 26 25 24 23 24 26 27 28 29 30 31 33 35 36 36 36 36 35 36 36 35 33 30 26 25 25 26 26 28 30 29 27 24 25 28 31 33 33 34 37 40 42 43 44 44 45 49 52
10 9 9 8 7 7 8 9 10 11 11 9 9 11 13 16 17 18 20 21 21 22 24 26 27 29 29 29 29 30 31 32 31 30 29 28 28 28 28 27 26 26 27 28 28 28 29 31 33 34 35 35 36 37 35 35 38 39 37 34 30 28 28 28 28 28 29 31 31 27 25 26 29 33 35 35 36 38 41 43 44 45 46 49 53
11 10 10 10 9 9 10 11 11 11 11 10 10 12 14 19 21 21 21 23 24 25 26 27 28 29 29 29 30 32 33 33 32 30 30 29 30 31 32 33 32 31 31 32 31 30 29 30 33 34 35 36 38 39 36 35 36 39 41 40 36 32 31 31 30 29 28 30 31 29 27 26 27 31 34 35 35 37 39 42 44 45 46 49 53
12 12 11 11 11 11 12 12 12 12 12 11 12 13 16 21 24 22 23 25 27 28 27 27 28 28 28 29 31 33 33 33 33 32 32 33 34 35 37 38 38 37 37 36 34 33 33 33 34 35 37 38 38 38 39 38 37 37 38 41 42 39 36 35 33 31 29 29 30 30 30 29 28 28 30 32 34 36 39 41 43 44 45 47 50
14 13 13 12 12 12 12 13 13 13 13 13 13 14 17 21 23 22 24 26 28 29 28 26 27 27 26 28 30 32 32 33 33 33 35 36 38 40 41 41 40 39 38 37 36 37 38 37 36 36 38 39 38 38 39 39 38 37 35 37 44 46 44 42 38 33 32 32 30 29 29 30 29 27 26 30 34 36 38 40 42 44 44 45 48
15 15 14 14 13 13 14 14 15 15 15 15 16 17 18 20 20 21 24 26 27 28 27 26 25 25 25 26 28 29 29 30 31 32 34 36 38 39 40 40 40 40 40 40 40 40 40 40 40 40 40 41 40 39 38 36 35 36 35 35 40 46 48 48 43 35 33 34 31 30 28 27 28 27 25 28 34 35 36 39 41 43 43 43 46
16 15 14 14 14 13 14 15 16 16 17 19 19 19 20 20 20 21 22 23 24 25 25 24 24 23 23 24 25 26 26 27 28 29 31 33 35 36 37 38 39 40 42 42 43 42 41 41 41 42 43 42 42 40 37 36 35 34 35 34 38 42 45 48 47 39 34 34 33 32 29 24 23 27 26 26 29 32 35 37 39 41 43 43 45
16 15 15 15 14 14 14 15 17 18 19 20 20 19 20 21 21 21 20 19 20 22 23 23 24 22 22 23 24 24 25 26 26 27 28 30 32 33 34 35 36 38 40 42 44 44 43 41 41 42 42 42 42 40 37 37 36 35 34 33 34 37 38 42 45 42 36 35 38 39 33 25 23 27 29 27 26 30 33 35 36 38 41 44 45
17 16 15 15 15 14 14 15 17 19 20 20 19 18 18 19 19 19 17 16 18 19 20 22 23 22 21 22 23 24 25 26 27 27 28 28 29 30 32 33 34 34 36 40 43 44 43 43 43 42 42 41 40 39 38 37 36 34 33 32 31 33 35 36 39 41 41 39 40 43 39 28 25 27 31 29 27 28 29 31 33 35 38 42 44
17 16 15 15 15 14 14 16 18 20 20 20 19 18 17 17 16 15 14 15 17 18 19 20 21 21 21 21 22 24 25 26 27 29 29 29 29 29 29 31 32 32 33 37 41 42 43 44 44 44 43 41 40 38 37 36 35 33 33 32 30 31 32 34 35 38 44 44 39 43 43 31 25 28 32 30 26 25 26 27 30 31 33 36 40
17 17 15 14 15 14 15 16 17 18 19 19 19 18 17 16 15 13 11 12 16 18 19 19 19 20 20 20 21 23 24 26 28 29 30 30 30 30 29 29 31 31 32 36 39 40 42 43 44 45 44 42 41 39 37 35 32 30 30 30 30 30 31 33 35 37 43 43 35 36 41 32 23 26 32 30 26 25 24 24 26 27 27 29 31
17 17 15 14 15 15 15 15 15 16 17 18 17 17 15 14 14 13 10 11 15 17 18 18 18 19 20 19 20 22 23 25 27 28 29 29 30 31 30 29 29 30 31 35 37 39 41 42 43 45 45 44 43 41 38 35 30 27 26 26 27 30 31 34 37 35 38 38 29 27 34 30 22 25 30 29 26 25 22 22 23 22 22 23 22
17 17 16 15 15 15 15 14 14 15 15 15 15 15 13 11 11 13 12 12 13 14 15 17 17 18 19 19 19 21 22 24 25 26 28 28 28 30 31 30 29 29 30 33 35 37 39 41 43 45 45 45 44 43 40 34 30 27 25 24 25 29 32 35 37 35 33 29 21 20 27 28 23 23 26 25 24 23 22 22 20 17 16 17 17
16 16 16 15 15 15 15 14 14 15 15 14 13 12 11 9 10 12 12 12 13 12 13 15 17 17 18 19 20 21 22 24 25 25 26 28 27 29 31 31 30 29 30 32 34 36 39 41 43 46 47 46 45 45 43 35 29 27 27 28 30 32 33 34 38 38 29 18 14 15 21 25 25 22 21 22 23 24 25 23 18 14 12 12 14
17 16 15 15 15 14 14 14 13 13 14 14 13 12 11 10 10 11 12 11 12 12 12 14 15 16 17 18 19 21 22 24 25 24 26 27 27 28 31 32 31 30 31 33 34 36 39 42 44 47 49 49 47 47 45 39 31 27 27 29 32 34 33 33 38 38 26 14 12 15 16 20 22 21 20 21 20 20 23 21 16 13 12 11 12
18 17 16 16 15 14 14 14 13 12 12 12 12 12 12 12 11 11 10 10 11 12 12 13 14 15 16 17 19 20 21 23 24 23 25 27 27 27 29 32 31 30 30 32 35 38 40 43 45 48 50 51 49 49 48 42 34 29 26 27 30 32 31 32 36 36 28 21 17 13 11 12 14 15 18 21 19 16 16 18 16 13 11 11 10
Wind_Direction
162 156 187 233 265 281 290 301 312 317 320 324 325 319 302 293 297 302 302 297 293 290 278 277 277 277 288 293 292 298 299 292 289 287 286 285 282 279 277 278 279 281 283 287 291 292 294 297 299 303 303 304 309 313 316 313 309 306 305 306 306 307 300 288 278 271 277 284 280 270 263 256 242 230 220 204 189 184 184 182 178 178 181 180 178
172 176 206 230 248 259 257 256 270 282 297 307 305 300 290 283 281 284 288 287 286 284 273 267 262 258 263 273 280 288 296 299 298 292 286 285 285 286 285 283 282 283 285 286 287 288 291 293 296 299 298 299 301 303 306 309 310 308 305 303 304 306 303 291 277 266 271 276 270 261 257 254 243 233 221 203 193 188 186 187 182 183 188 187 185
204 216 235 258 265 256 241 239 256 275 291 299 303 306 303 299 295 292 294 293 289 290 285 274 267 266 266 266 270 279 287 295 298 294 291 289 288 289 289 289 288 288 290 290 287 285 287 291 295 296 294 296 297 297 298 302 307 307 306 304 302 304 302 291 278 268 268 272 265 254 250 248 241 237 227 203 196 193 187 189 188 188 191 191 192
258 281 258 262 257 242 240 241 257 277 293 303 311 311 305 303 302 300 301 298 297 298 292 281 274 273 273 271 271 272 277 285 290 288 286 286 289 291 291 290 289 290 292 294 290 284 283 288 292 292 291 294 295 293 293 296 301 305 306 303 303 304 303 295 285 275 268 267 265 255 245 242 237 237 232 207 198 195 189 192 193 192 194 195 198
264 272 253 232 205 217 236 250 260 274 295 306 310 309 305 305 304 306 306 306 307 304 298 294 288 284 284 283 277 273 274 276 280 283 282 281 285 289 291 290 286 287 291 294 293 287 282 283 287 288 290 293 294 291 289 289 293 299 304 303 301 302 302 299 293 284 270 263 261 254 243 238 235 234 231 212 201 196 190 193 197 196 197 197 201
241 250 235 199 198 199 184 219 271 301 311 313 312 313 312 309 311 313 311 312 313 311 308 305 301 297 297 295 288 283 282 280 277 278 280 280 282 284 287 289 289 290 291 291 293 291 286 282 284 288 289 290 291 289 287 284 285 292 300 302 300 299 300 299 300 292 272 262 258 250 241 237 235 232 229 214 204 200 193 194 199 200 201 201 205
180 3 260 220 219 214 214 224 275 313 315 321 320 317 314 312 314 313 312 313 314 314 311 308 307 308 307 305 301 295 293 292 288 283 282 281 282 283 286 290 292 293 291 289 291 293 290 284 283 289 290 288 287 286 283 280 279 285 293 295 295 297 298 300 303 296 273 261 254 246 240 237 234 229 227 215 206 204 196 194 202 203 207 208 208
164 152 221 238 253 274 268 275 330 321 318 324 320 314 312 314 313 312 312 313 314 314 312 309 308 309 310 309 306 304 302 299 296 292 289 288 288 287 286 287 290 291 291 290 290 292 293 289 284 285 287 287 285 281 278 275 274 276 281 283 284 287 291 296 301 296 277 261 250 243 239 235 233 228 225 216 210 207 197 194 202 205 210 213 209
170 187 201 243 267 277 279 311 326 315 319 321 314 309 309 311 309 309 310 312 315 315 312 309 307 309 309 309 309 308 308 308 308 304 300 298 297 296 295 294 294 295 296 296 295 294 294 291 284 280 282 283 280 276 272 270 269 269 271 273 273 273 279 289 295 295 283 263 248 242 238 233 232 227 223 217 213 209 199 196 201 206 212 216 214
160 202 214 238 263 276 287 318 316 307 309 307 298 298 305 306 307 310 312 314 316 314 315 313 312 314 313 312 314 314 313 312 313 316 315 314 312 312 311 310 309 308 305 303 300 297 296 293 284 279 281 280 276 271 267 266 266 267 268 268 265 263 269 280 289 292 286 264 248 240 235 232 231 225 221 217 214 210 202 200 201 206 214 217 219
175 216 220 240 252 262 288 307 297 286 281 284 289 301 307 306 307 312 316 321 321 319 321 318 319 321 318 318 320 322 323 321 324 333 340 339 334 330 327 322 317 314 311 309 306 302 301 299 292 283 282 280 275 271 265 263 264 266 266 268 264 258 261 268 280 289 287 268 249 239 234 231 229 224 222 218 214 212 207 205 203 203 213 216 218
195 211 206 231 242 244 261 269 265 262 262 279 297 308 311 310 313 316 320 327 331 333 331 326 325 322 320 325 333 336 335 337 347 356 353 342 335 334 333 328 325 323 320 317 314 310 308 306 301 293 287 282 278 275 268 262 262 263 262 264 263 259 257 258 270 284 287 279 255 238 234 231 227 224 225 222 215 213 211 211 207 203 208 215 217
177 186 196 215 226 234 241 241 245 252 264 278 286 294 299 301 305 309 316 327 340 348 339 333 332 329 329 334 344 355 354 356 13 359 338 334 338 344 341 335 336 337 332 326 319 315 314 311 305 298 291 286 283 279 273 266 262 262 261 260 258 257 255 253 263 274 279 283 268 243 234 230 229 226 226 226 219 215 213 213 210 206 206 212 216
185 186 199 215 221 231 239 242 245 251 260 264 267 275 279 284 291 298 307 319 339 348 337 337 340 337 338 339 345 1 12 18 358 336 332 334 348 349 344 341 339 340 335 331 327 321 319 316 312 305 296 289 284 282 278 272 267 265 262 258 254 253 252 250 257 262 265 275 275 255 238 230 228 228 228 227 222 219 215 213 212 208 206 210 215
212 209 213 221 225 234 243 250 255 258 262 261 262 268 273 277 284 294 300 307 328 335 326 334 340 339 342 344 347 355 2 348 324 334 345 343 346 345 342 341 338 338 336 333 332 329 324 319 317 314 305 296 290 286 283 278 274 271 265 258 255 254 252 248 251 254 255 263 269 261 246 235 228 225 229 229 226 223 217 213 212 208 207 210 214
243 240 234 234 236 241 246 253 260 267 271 267 263 261 265 272 277 288 297 303 311 314 318 330 339 345 354 354 350 353 353 336 326 334 348 336 339 345 343 340 337 336 335 334 335 335 332 326 322 318 311 306 301 296 290 284 278 274 268 262 260 258 254 248 246 250 249 252 259 261 252 241 231 224 226 230 230 227 219 213 210 208 209 211 212
252 250 248 246 245 246 249 255 261 267 269 266 264 261 261 268 276 287 295 301 304 303 304 312 326 340 1 7 360 353 346 337 332 329 326 330 337 341 342 346 345 334 329 333 336 336 334 331 329 325 317 310 307 304 300 293 284 277 271 267 265 262 257 251 247 248 248 244 249 258 258 247 235 225 225 230 231 229 222 215 211 209 211 212 212
252 252 251 248 245 245 246 251 257 261 263 267 273 274 275 277 283 289 292 295 297 296 292 288 287 288 318 1 2 346 339 342 342 328 319 323 327 330 331 334 337 332 330 336 337 335 331 328 327 328 325 317 310 308 306 301 292 283 277 272 269 265 260 254 250 250 249 244 243 252 259 254 240 229 225 228 230 229 225 221 216 212 213 212 212
249 246 246 245 242 243 244 246 252 257 264 280 289 297 302 299 293 293 295 296 295 296 294 290 287 277 271 276 274 293 317 338 350 338 326 316 308 312 315 314 324 329 329 334 336 333 326 322 320 322 325 323 318 313 309 306 298 289 283 278 274 269 263 258 255 252 250 247 241 242 249 253 246 236 230 229 229 230 227 224 219 216 215 213 213
238 236 239 243 240 242 243 241 250 260 269 286 301 307 305 304 301 300 304 308 308 308 305 302 302 299 294 290 283 281 287 308 327 335 334 319 307 305 302 300 305 312 313 315 324 328 325 325 325 322 322 322 320 318 315 311 304 297 291 283 276 271 266 261 258 255 253 252 246 239 239 246 245 239 237 235 232 231 229 225 221 218 218 217 214
230 229 220 221 223 230 243 246 258 277 289 311 334 324 309 312 314 312 319 324 325 323 319 316 316 316 315 313 310 305 304 311 316 323 338 332 319 314 308 302 298 295 297 299 301 309 319 328 333 332 328 322 317 315 314 313 310 304 298 289 280 272 268 264 262 259 255 254 255 247 237 238 241 237 236 236 234 233 232 229 224 220 220 219 216
221 199 170 164 194 196 223 247 328 5 359 5 357 329 325 330 327 330 337 336 333 331 328 324 322 322 323 326 332 337 341 346 348 349 351 344 332 325 321 316 308 301 301 303 299 298 304 314 330 337 336 329 320 314 308 305 306 306 300 292 283 275 272 270 267 264 259 254 257 254 240 231 235 237 235 234 234 233 231 230 225 220 221 221 221
190 158 147 138 142 117 97 88 60 31 16 5 346 335 335 334 336 343 343 336 335 338 336 332 332 335 339 347 1 10 9 2 357 355 352 343 332 327 325 323 316 310 309 310 307 304 300 298 311 325 331 334 333 329 319 307 302 301 297 289 282 276 273 272 269 264 260 257 256 254 245 233 228 233 236 234 232 231 229 226 221 218 218 220 224
148 137 127 114 108 99 88 71 41 17 10 358 348 345 337 334 343 348 342 339 346 352 354 354 356 2 8 19 29 30 23 9 355 348 348 344 336 332 329 326 321 314 311 312 309 307 307 301 294 297 313 330 334 334 333 325 312 302 297 292 286 280 272 270 270 265 261 259 257 255 251 245 234 228 233 236 233 231 230 225 220 219 218 218 220
129 129 122 114 106 98 78 51 27 14 12 2 356 348 332 337 350 349 348 352 357 7 14 15 15 20 26 33 38 33 21 6 351 342 341 342 343 341 334 327 323 315 312 313 310 306 305 302 293 290 301 316 321 318 316 320 321 314 306 298 291 284 275 269 270 269 265 262 261 259 255 252 245 231 226 235 237 232 230 227 222 219 219 219 218
129 123 119 118 107 92 67 50 35 23 16 3 1 350 339 349 358 355 360 8 11 21 29 29 28 27 30 32 29 22 8 348 338 335 335 337 341 341 331 322 320 317 315 316 315 313 309 305 306 307 305 300 301 302 298 297 303 306 306 301 294 285 276 272 270 269 269 266 264 263 259 254 250 239 224 227 236 235 231 230 224 219 218 219 218
127 120 120 116 104 97 80 65 47 27 16 8 8 1 354 2 10 10 16 22 29 38 38 35 30 22 21 16 0 355 347 332 328 330 333 332 331 329 328 328 328 327 326 324 322 323 321 318 316 317 315 309 303 301 296 293 294 295 294 294 294 286 275 267 265 266 268 268 265 264 263 259 254 247 232 222 229 234 235 233 225 219 219 220 218
128 125 124 120 117 116 100 75 56 28 21 21 20 19 19 26 33 37 39 36 37 41 32 24 21 12 3 352 341 340 336 329 330 336 345 350 346 334 333 342 342 334 331 329 326 326 330 329 324 323 324 319 313 309 304 299 296 295 292 287 287 287 278 265 261 265 268 269 268 264 263 261 257 254 245 231 230 232 234 235 229 221 219 220 220
132 132 132 135 135 126 110 88 70 39 34 40 39 41 45 50 54 55 53 48 46 44 29 19 22 19 0 352 355 359 359 360 3 6 6 6 6 359 351 355 353 340 333 328 324 326 330 331 327 325 326 322 316 313 310 306 303 298 294 288 282 281 279 272 267 269 271 268 266 264 261 260 257 255 252 244 237 234 233 233 234 228 220 219 221
140 141 144 146 141 132 117 89 78 58 55 58 53 54 60 63 66 67 65 61 57 47 29 19 24 22 7 0 5 11 14 16 16 14 12 10 8 6 3 -0 357 347 335 324 320 324 328 329 330 329 327 326 321 317 314 310 307 302 296 290 283 276 273 271 271 274 275 270 265 263 260 259 256 255 255 250 241 236 233 231 236 235 224 218 221
147 150 151 148 143 139 118 87 83 71 65 66 63 67 72 73 75 78 71 60 48 35 21 16 18 16 10 11 15 20 21 20 18 15 14 14 10 7 5 1 358 351 340 326 317 322 327 326 328 332 331 328 326 321 317 312 308 303 298 292 286 278 271 266 266 270 273 272 268 265 260 258 257 253 253 254 249 243 236 232 234 236 230 223 221
152 153 151 148 146 138 106 85 81 74 77 86 83 81 82 79 79 77 59 43 39 34 26 23 26 24 23 26 27 27 25 22 20 18 15 14 12 9 5 0 359 354 346 335 319 319 326 327 328 333 335 333 332 328 323 317 312 303 296 293 290 284 275 269 266 266 269 270 268 266 260 256 256 253 249 250 251 250 245 236 233 234 235 230 223
154 154 153 154 149 128 105 93 86 87 101 110 105 95 88 81 78 68 49 45 46 43 39 37 36 36 35 35 33 31 28 25 22 20 17 15 12 9 6 2 3 1 353 345 330 321 325 331 332 334 336 335 334 334 331 326 323 315 302 293 291 289 280 272 269 267 269 271 271 271 266 259 258 257 253 249 248 249 249 244 236 233 235 234 228
154 156 159 154 139 121 111 105 103 110 118 120 113 101 89 80 73 63 52 51 50 47 46 45 44 44 42 39 36 32 29 26 24 20 17 15 12 8 8 7 6 6 1 354 344 332 327 332 337 336 336 336 336 337 335 330 326 322 315 303 294 292 285 276 271 269 272 275 278 279 273 265 263 261 257 252 247 246 246 246 242 236 234 235 233
153 153 149 140 131 125 119 114 112 116 122 119 110 102 94 82 70 64 60 58 54 52 53 52 50 49 44 40 36 31 29 27 25 23 18 15 13 9 9 12 9 4 2 359 352 341 331 333 338 337 335 337 336 334 332 328 324 321 320 314 303 294 290 285 277 269 268 273 277 277 272 266 262 260 259 256 251 245 242 243 243 241 238 236 234
152 148 141 136 133 126 121 118 113 113 117 114 105 99 94 84 73 70 68 63 60 59 58 56 53 50 46 41 35 31 31 30 28 26 22 18 17 15 14 14 10 2 359 357 352 346 337 334 336 334 333 334 333 332 331 330 327 325 323 319 311 301 293 288 282 273 266 266 267 270 273 269 262 257 257 256 254 249 243 240 240 241 242 239 234
148 144 140 135 132 127 121 116 112 111 113 111 103 97 91 85 79 76 72 67 65 64 60 57 54 52 48 43 39 36 34 33 32 30 27 25 24 23 20 17 12 4 358 354 350 348 344 337 332 330 330 330 330 332 334 331 328 328 327 323 317 310 301 291 285 280 273 266 262 264 269 268 261 257 255 253 253 250 245 241 239 239 241 241 237
144 139 136 132 127 122 118 112 112 114 118 116 107 97 89 85 82 78 73 70 67 64 60 58 57 55 53 48 44 43 40 38 37 34 31 29 28 26 24 20 16 10 4 360 355 351 347 340 335 332 332 332 332 333 334 331 329 329 328 326 321 316 311 303 293 286 280 272 264 263 266 266 264 260 255 252 252 251 247 243 239 237 238 240 239
141 137 133 128 121 116 113 110 111 116 122 120 109 96 90 89 86 79 73 70 66 62 59 59 59 59 57 54 50 47 44 41 38 35 33 32 31 31 29 25 21 16 11 7 3 -0 356 350 346 342 340 338 336 334 333 332 330 329 328 325 321 320 319 315 306 295 288 279 269 264 264 267 270 261 251 250 252 252 249 245 242 239 237 239 240
139 133 128 122 117 113 111 107 109 116 122 118 105 95 92 93 91 80 71 66 62 59 57 57 59 60 59 56 54 51 47 43 40 38 37 36 36 34 32 28 24 20 16 13 10 8 5 360 354 351 348 345 342 337 334 334 330 327 326 322 319 320 320 319 314 308 300 289 277 269 264 264 267 263 255 255 254 252 250 247 244 242 239 240 241
135 129 124 118 114 110 108 106 109 116 117 111 101 93 91 93 92 81 69 62 57 54 53 53 56 58 57 56 56 54 51 47 44 42 41 39 36 32 29 27 24 21 18 16 15 11 7 3 359 356 353 350 347 342 337 334 329 324 322 319 314 316 317 317 315 315 312 303 290 279 269 264 266 266 265 263 256 251 250 248 247 245 241 240 242
131 125 120 115 110 106 105 106 110 114 112 107 100 94 89 87 85 76 65 58 53 48 47 49 52 52 51 52 53 53 52 49 45 42 40 37 35 31 27 23 20 19 17 16 16 14 8 3 359 357 355 351 350 347 339 332 328 324 321 318 315 314 316 315 314 315 316 312 304 290 273 261 265 265 262 264 260 253 252 250 247 245 242 241 242
128 122 117 112 105 100 100 103 107 110 110 107 102 95 88 81 75 68 61 54 50 46 44 47 49 48 45 45 47 48 48 46 43 40 37 33 32 32 29 24 19 17 15 14 14 13 9 3 1 359 355 351 350 348 340 333 329 325 322 320 318 316 314 312 311 311 311 312 310 302 283 261 262 264 257 259 264 259 256 254 250 247 243 240 241
128 121 114 108 102 96 97 102 107 111 111 109 104 97 88 80 72 66 59 53 51 47 44 45 47 46 42 41 43 45 43 41 38 34 32 31 31 31 30 27 22 18 16 15 12 11 9 4 2 0 356 351 349 347 342 335 329 326 326 326 325 323 318 314 309 306 307 309 307 304 295 272 260 262 255 255 262 259 256 257 253 250 245 241 241
127 119 113 107 101 97 98 105 111 113 111 107 103 97 91 84 79 71 58 53 53 49 43 43 44 42 39 38 40 42 41 38 36 33 30 30 30 29 28 26 23 19 16 14 13 12 10 5 2 1 359 355 350 347 344 338 332 330 331 331 332 331 325 318 310 302 302 304 301 300 298 282 262 260 254 253 261 257 252 256 254 250 246 244 245
128 120 113 109 103 99 100 108 116 116 112 107 103 98 93 90 89 84 65 53 53 49 43 40 41 39 36 35 37 40 39 36 34 31 28 27 25 24 24 23 21 18 14 12 12 12 10 7 3 2 2 -0 355 351 347 343 338 335 334 336 338 335 325 315 308 299 297 298 295 294 294 282 265 261 253 250 261 263 255 257 257 251 247 250 253
131 124 119 115 107 102 101 108 117 118 114 112 109 105 103 101 99 97 84 62 52 45 38 36 38 39 36 35 36 38 37 35 32 28 25 23 22 20 19 19 19 17 13 11 12 12 11 8 5 4 3 3 1 358 353 348 346 341 335 335 338 335 326 317 311 303 296 295 294 294 292 284 270 264 255 250 262 268 260 259 260 253 248 250 256
134 128 125 120 112 107 103 106 113 114 113 115 115 116 117 112 103 98 93 80 62 47 36 33 36 39 37 36 36 36 36 35 31 28 24 21 19 18 16 15 16 16 14 12 13 16 16 12 8 8 7 5 5 4 360 354 350 346 338 335 340 340 335 328 323 317 307 299 296 294 289 281 274 268 259 256 267 270 260 257 257 252 248 249 251
130 126 124 121 117 113 108 106 107 107 108 110 112 115 116 107 97 93 90 86 76 60 42 35 39 41 39 37 36 35 36 34 30 26 23 19 17 17 14 11 12 13 13 12 14 19 21 17 13 12 11 10 9 8 6 1 355 353 351 351 353 351 344 337 332 328 323 315 312 304 286 275 273 272 264 263 267 261 251 248 246 238 240 247 249
130 125 124 122 119 116 112 107 104 101 103 105 105 106 106 102 96 90 86 85 82 74 58 47 46 46 43 40 38 35 34 33 28 25 24 19 17 17 13 9 10 12 11 11 15 19 21 19 17 16 13 13 12 11 10 7 2 0 3 3 360 355 349 342 338 337 340 349 346 328 299 274 270 271 263 253 248 242 239 238 234 231 234 239 245
132 129 128 125 120 116 112 108 104 100 99 101 102 101 99 97 92 85 83 82 79 75 69 61 56 51 47 44 41 36 34 33 27 24 25 22 17 18 14 9 9 11 10 13 17 18 18 18 17 16 14 13 13 13 13 12 9 7 9 9 5 359 351 347 347 347 349 356 0 346 314 290 279 268 248 226 211 207 218 223 223 228 231 230 234